TimeCST,TemperatureF,Dew PointF,Humidity,Sea Level PressureIn,VisibilityMPH,Wind Direction,Wind SpeedMPH,Gust SpeedMPH,PrecipitationIn,Events,Conditions,WindDirDegrees,DateUTC
12:53 AM,54.0,51.1,90,30.15,10.0,ESE,5.8,-,N/A,,Clear,120,2013-01-21 06:53:00
1:53 AM,55.0,52.0,89,30.15,10.0,SE,6.9,-,N/A,,Clear,130,2013-01-21 07:53:00
2:53 AM,54.0,51.1,90,30.14,10.0,ESE,4.6,-,N/A,,Clear,110,2013-01-21 08:53:00
3:53 AM,52.0,48.9,89,30.14,3.0,East,4.6,-,N/A,,Clear,90,2013-01-21 09:53:00
4:19 AM,50.0,48.2,94,30.13,1.8,ENE,4.6,-,N/A,,Clear,70,2013-01-21 10:19:00
4:33 AM,48.2,46.4,93,30.13,3.0,ENE,4.6,-,N/A,,Clear,60,2013-01-21 10:33:00
4:43 AM,50.0,48.2,94,30.13,1.8,ENE,5.8,-,N/A,,Clear,70,2013-01-21 10:43:00
4:53 AM,50.0,48.0,93,30.13,0.8,ENE,5.8,-,N/A,,Clear,70,2013-01-21 10:53:00
5:53 AM,48.9,46.9,93,30.14,0.5,ENE,4.6,-,N/A,Fog,Fog,70,2013-01-21 11:53:00
6:32 AM,48.2,46.4,93,30.15,1.0,ENE,4.6,-,N/A,,Clear,70,2013-01-21 12:32:00
6:40 AM,48.2,46.4,93,30.15,0.5,ENE,4.6,-,N/A,Fog,Fog,70,2013-01-21 12:40:00
6:53 AM,48.9,46.9,93,30.15,0.5,ENE,4.6,-,N/A,Fog,Fog,70,2013-01-21 12:53:00
7:25 AM,48.2,46.4,93,30.17,1.2,ENE,4.6,-,N/A,,Clear,70,2013-01-21 13:25:00
7:53 AM,48.9,46.9,93,30.18,0.8,NE,4.6,-,N/A,,Clear,50,2013-01-21 13:53:00
8:01 AM,48.2,46.4,93,30.18,2.0,NE,4.6,-,N/A,,Clear,50,2013-01-21 14:01:00
8:09 AM,48.2,46.4,93,30.19,4.0,NE,4.6,-,N/A,,Clear,40,2013-01-21 14:09:00
8:53 AM,57.0,55.0,93,30.21,6.0,Calm,Calm,-,N/A,,Clear,0,2013-01-21 14:53:00
9:53 AM,63.0,57.0,81,30.24,10.0,Calm,Calm,-,N/A,,Clear,0,2013-01-21 15:53:00
10:53 AM,66.9,57.9,73,30.25,10.0,Calm,Calm,-,N/A,,Clear,0,2013-01-21 16:53:00
11:53 AM,69.1,54.0,58,30.23,10.0,SSW,5.8,-,N/A,,Partly Cloudy,210,2013-01-21 17:53:00
12:53 PM,69.1,54.0,58,30.21,10.0,SSW,4.6,-,N/A,,Clear,200,2013-01-21 18:53:00
1:53 PM,69.1,51.1,53,30.18,10.0,SSW,6.9,-,N/A,,Clear,200,2013-01-21 19:53:00
2:53 PM,71.1,52.0,51,30.17,10.0,Variable,3.5,-,N/A,,Clear,0,2013-01-21 20:53:00
3:53 PM,70.0,52.0,53,30.16,10.0,SSW,8.1,-,N/A,,Clear,200,2013-01-21 21:53:00
5:53 PM,63.0,48.9,60,30.18,10.0,ESE,6.9,-,N/A,,Clear,120,2013-01-21 23:53:00
6:53 PM,57.9,51.1,78,30.18,10.0,East,6.9,-,N/A,,Clear,100,2013-01-22 00:53:00
7:53 PM,57.9,52.0,81,30.19,10.0,East,6.9,-,N/A,,Clear,100,2013-01-22 01:53:00
8:53 PM,55.0,51.1,86,30.21,10.0,East,5.8,-,N/A,,Clear,100,2013-01-22 02:53:00
9:53 PM,54.0,50.0,86,30.22,9.0,ESE,4.6,-,N/A,,Clear,110,2013-01-22 03:53:00
10:53 PM,53.1,50.0,89,30.22,8.0,ESE,4.6,-,N/A,,Clear,110,2013-01-22 04:53:00
11:53 PM,54.0,51.1,90,30.20,6.0,ESE,3.5,-,N/A,,Clear,110,2013-01-22 05:53:00